KC5MUJ-1 Weather Reports


Display with metric or nautical units.
time (UTC)temp
F
wind
direction
speed
MPH
gust
MPH
rain 1hr
in
rain 24hr
in
rain mn
in
humidity
%
barometer
mb
20260506015500 80 108 0.0 0.0 0.00 0.00 0.00 82 1007.3
20260506015003 80 108 0.0 1.0 0.00 0.00 0.00 82 1007.3
20260506014504 80 106 0.0 1.0 0.00 0.00 0.00 82 1007.2
20260506014002 80 106 0.0 1.0 0.00 0.00 0.00 81 1007.3
20260506013001 81 107 0.0 0.0 0.00 0.00 0.00 81 1007.4
20260506012504 81 96 0.0 1.0 0.00 0.00 0.00 80 1007.2
20260506012000 81 96 0.0 1.0 0.00 0.00 0.00 80 1007.2
20260506011001 82 186 0.0 0.0 0.00 0.00 0.00 79 1007.3
20260506010501 82 186 0.0 0.0 0.00 0.00 0.00 78 1007.3
20260506010002 82 186 0.0 3.0 0.00 0.00 0.00 78 1007.3
20260506005502 82 188 0.0 3.0 0.00 0.00 0.00 78 1007.4
20260506005001 82 203 0.0 0.0 0.00 0.00 0.00 77 1007.3
20260506004001 83 205 0.0 0.0 0.00 0.00 0.00 77 1007.3
20260506003500 83 205 0.0 0.0 0.00 0.00 0.00 77 1007.2
20260506002501 83 205 0.0 0.0 0.00 0.00 0.00 77 1007.1
20260506002003 83 206 0.0 0.0 0.00 0.00 0.00 76 1007.1
20260506001001 83 192 0.0 0.0 0.00 0.00 0.00 76 1007.0
20260506000503 83 200 0.0 2.0 0.00 0.00 0.00 75 1007.0
20260505235500 84 178 0.0 1.0 0.00 0.00 0.00 76 1007.0
20260505235003 84 199 0.0 0.0 0.00 0.00 0.00 75 1007.1
20260505234500 84 186 0.0 2.0 0.00 0.00 0.00 75 1006.8
20260505234000 84 202 0.0 2.0 0.00 0.00 0.00 74 1006.8
20260505233503 84 182 0.0 0.0 0.00 0.00 0.00 74 1006.7
20260505233000 84 207 0.0 0.0 0.00 0.00 0.00 73 1006.8
20260505232502 84 161 0.0 0.0 0.00 0.00 0.00 73 1006.8
20260505232000 84 186 0.0 0.0 0.00 0.00 0.00 73 1006.9
20260505230500 84 178 0.0 4.0 0.00 0.00 0.00 73 1006.7
20260505230001 85 112 0.0 2.0 0.00 0.00 0.00 73 1006.7
20260505225503 85 99 0.0 2.0 0.00 0.00 0.00 72 1006.6
20260505225001 85 167 0.0 2.0 0.00 0.00 0.00 72 1006.6
20260505224501 85 108 0.0 0.0 0.00 0.00 0.00 72 1006.6
20260505224002 85 113 0.0 2.0 0.00 0.00 0.00 71 1006.5
20260505223500 85 115 0.0 3.0 0.00 0.00 0.00 71 1006.6
20260505223001 85 127 0.0 3.0 0.00 0.00 0.00 71 1006.5
20260505222501 86 155 0.0 4.0 0.00 0.00 0.00 71 1006.6
20260505221501 86 189 0.0 1.0 0.00 0.00 0.00 71 1006.6
20260505221002 86 188 0.0 3.0 0.00 0.00 0.00 70 1006.7
20260505220501 86 215 0.0 3.0 0.00 0.00 0.00 70 1006.6
20260505220002 86 128 0.0 4.0 0.00 0.00 0.00 69 1006.7
20260505215501 87 182 0.0 4.0 0.00 0.00 0.00 68 1006.8
20260505215000 87 111 0.0 4.0 0.00 0.00 0.00 68 1007.0
20260505214500 88 182 0.0 0.0 0.00 0.00 0.00 67 1007.2
20260505213503 88 172 0.0 0.0 0.00 0.00 0.00 65 1007.2
20260505213001 88 177 0.0 0.0 0.00 0.00 0.00 66 1007.3
20260505211500 88 207 0.0 11.0 0.00 0.00 0.00 66 1007.4
20260505211003 88 202 0.0 11.0 0.00 0.00 0.00 66 1007.3
20260505210501 88 209 0.0 1.0 0.00 0.00 0.00 66 1007.4
20260505210000 88 202 0.0 0.0 0.00 0.00 0.00 67 1007.3
20260505205500 88 196 0.0 0.0 0.00 0.00 0.00 68 1007.4
20260505204503 87 200 0.0 4.0 0.00 0.00 0.00 70 1007.7
20260505204002 86 140 0.0 3.0 0.00 0.00 0.00 71 1007.7
20260505203501 86 217 0.0 2.0 0.00 0.00 0.00 70 1007.8
20260505203003 86 189 0.0 2.0 0.00 0.00 0.00 71 1008.0
20260505202502 86 134 0.0 0.0 0.00 0.00 0.00 71 1008.0
20260505202006 85 190 0.0 10.0 0.00 0.00 0.00 72 1008.3
20260505201000 85 169 0.0 3.0 0.00 0.00 0.00 72 1008.2
20260505200003 84 211 0.0 1.0 0.00 0.00 0.00 73 1008.3
20260505195502 84 153 0.0 1.0 0.00 0.00 0.00 73 1008.4
20260505195002 84 182 0.0 1.0 0.00 0.00 0.00 73 1008.4
20260505194459 84 149 0.0 1.0 0.00 0.00 0.00 73 1008.5
20260505194001 84 205 0.0 1.0 0.00 0.00 0.00 73 1008.6
20260505193000 84 202 0.0 4.0 0.00 0.00 0.00 73 1008.7
20260505192459 84 133 0.0 4.0 0.00 0.00 0.00 74 1008.6
20260505192002 84 186 0.0 1.0 0.00 0.00 0.00 74 1008.5
20260505191503 84 204 0.0 2.0 0.00 0.00 0.00 73 1008.5
20260505191003 84 186 0.0 2.0 0.00 0.00 0.00 73 1008.7
20260505190503 84 183 0.0 3.0 0.00 0.00 0.00 74 1008.8
20260505185500 83 174 0.0 3.0 0.00 0.00 0.00 76 1008.8
20260505184459 83 207 0.0 0.0 0.00 0.00 0.00 76 1008.9
20260505184003 82 190 0.0 1.0 0.00 0.00 0.00 76 1009.1
20260505183459 82 179 0.0 1.0 0.00 0.00 0.00 77 1009.1
20260505183003 82 182 0.0 0.0 0.00 0.00 0.00 77 1009.2
20260505182459 81 200 0.0 0.0 0.00 0.00 0.00 77 1009.2
20260505181959 81 194 0.0 0.0 0.00 0.00 0.00 78 1009.2
20260505181502 81 196 0.0 0.0 0.00 0.00 0.00 78 1009.3
20260505180959 80 182 0.0 0.0 0.00 0.00 0.00 81 1009.3
20260505175459 79 202 0.0 0.0 0.00 0.00 0.00 81 1009.5
20260505174959 78 180 0.0 0.0 0.00 0.00 0.00 82 1009.6
20260505174501 78 202 0.0 0.0 0.00 0.00 0.00 83 1009.7
20260505173959 78 219 0.0 0.0 0.00 0.00 0.00 83 1009.7
20260505173501 77 198 0.0 0.0 0.00 0.00 0.00 83 1009.7
20260505173000 77 190 0.0 0.0 0.00 0.00 0.00 83 1009.8
20260505172501 77 178 0.0 0.0 0.00 0.00 0.00 84 1009.8
20260505172001 77 199 0.0 0.0 0.00 0.00 0.00 85 1009.7
20260505171459 76 224 0.0 0.0 0.00 0.00 0.00 85 1009.8
20260505171001 76 205 0.0 0.0 0.00 0.00 0.00 85 1009.9
20260505170503 76 202 0.0 0.0 0.00 0.00 0.00 85 1009.9
20260505165502 76 202 0.0 0.0 0.00 0.00 0.00 86 1009.8
20260505165000 75 194 0.0 0.0 0.00 0.00 0.00 87 1009.8
20260505164003 75 191 0.0 0.0 0.00 0.00 0.00 87 1009.8
20260505163500 75 165 0.0 0.0 0.00 0.00 0.00 87 1009.8
20260505162959 75 215 0.0 6.0 0.00 0.00 0.00 88 1009.8
20260505162459 74 228 0.0 6.0 0.00 0.00 0.00 88 1009.8
20260505161500 74 216 0.0 0.0 0.00 0.00 0.00 89 1010.0
20260505160503 73 229 0.0 0.0 0.00 0.00 0.00 90 1009.9
20260505153000 73 178 0.0 0.0 0.00 0.00 0.00 91 1010.1
20260505152502 73 173 0.0 0.0 0.00 0.00 0.00 91 1010.0
20260505152000 73 212 0.0 0.0 0.00 0.00 0.00 91 1010.0
20260505151500 72 194 0.0 0.0 0.00 0.00 0.00 91 1009.9
20260505151001 72 198 0.0 0.0 0.00 0.00 0.00 91 1009.8
20260505150502 72 186 0.0 4.0 0.00 0.00 0.00 92 1009.6
20260505140502 72 178 0.0 0.0 0.00 0.00 0.00 92 1009.4
20260505124500 71 200 0.0 0.0 0.00 0.00 0.00 93 1008.8
20260505124003 71 207 0.0 0.0 0.00 0.00 0.00 93 1008.6
20260505123500 71 205 0.0 10.0 0.00 0.00 0.00 93 1008.5
20260505123001 71 180 0.0 10.0 0.00 0.00 0.00 93 1008.6
20260505122459 71 183 0.0 0.0 0.00 0.00 0.00 93 1008.5
20260505121959 71 195 0.0 0.0 0.00 0.00 0.00 93 1008.5
20260505121459 71 220 0.0 7.0 0.00 0.00 0.00 93 1008.4
20260505120459 71 201 0.0 0.0 0.00 0.00 0.00 93 1008.3
20260505120000 71 166 0.0 0.0 0.00 0.00 0.00 92 1008.2
20260505115504 71 174 1.0 6.0 0.00 0.00 0.00 92 1008.2
20260505114959 71 210 1.0 12.0 0.00 0.00 0.00 92 1008.2
20260505114502 71 171 0.0 13.0 0.00 0.00 0.00 92 1008.3
20260505113459 71 181 0.0 0.0 0.00 0.00 0.00 92 1008.2
20260505113001 70 182 1.0 0.0 0.00 0.00 0.00 92 1008.3
20260505112500 70 184 1.0 11.0 0.00 0.00 0.00 92 1008.2
20260505112001 70 184 0.0 1.0 0.00 0.00 0.00 92 1008.2
20260505111502 70 206 0.0 0.0 0.00 0.00 0.00 92 1008.3
20260505110459 70 157 0.0 0.0 0.00 0.00 0.00 92 1008.4
20260505102000 70 192 0.0 0.0 0.00 0.00 0.00 91 1008.3
20260505101501 70 167 0.0 2.0 0.00 0.00 0.00 91 1008.4
20260505100959 70 193 0.0 2.0 0.00 0.00 0.00 91 1008.7
20260505100503 70 202 0.0 2.0 0.00 0.00 0.00 91 1008.5
20260505095501 70 170 0.0 0.0 0.00 0.00 0.00 91 1008.4
20260505095004 70 204 0.0 0.0 0.00 0.00 0.00 91 1008.3
20260505094002 70 182 0.0 11.0 0.00 0.00 0.00 90 1008.5
20260505093502 70 185 0.0 11.0 0.00 0.00 0.00 90 1008.5
20260505093000 70 200 0.0 1.0 0.00 0.00 0.00 90 1008.5
20260505092501 70 150 0.0 1.0 0.00 0.00 0.00 90 1008.7
20260505092002 70 204 0.0 0.0 0.00 0.00 0.00 90 1008.5
20260505091503 70 175 0.0 1.0 0.00 0.00 0.00 90 1008.4
20260505091001 70 193 0.0 0.0 0.00 0.00 0.00 90 1008.6
20260505090459 70 200 0.0 8.0 0.00 0.00 0.00 90 1008.6
20260505090003 70 183 0.0 8.0 0.00 0.00 0.00 89 1008.6
20260505084500 70 169 0.0 0.0 0.00 0.00 0.00 89 1008.5
20260505084003 70 164 0.0 10.0 0.00 0.00 0.00 89 1008.5
20260505083500 70 180 0.0 10.0 0.00 0.00 0.00 89 1008.6
20260505083000 71 189 0.0 3.0 0.00 0.00 0.00 90 1008.6
20260505082502 71 184 0.0 0.0 0.00 0.00 0.00 90 1009.0
20260505082004 71 190 0.0 2.0 0.00 0.00 0.00 90 1009.1
20260505081502 71 183 0.0 2.0 0.00 0.00 0.00 90 1009.0
20260505080503 71 136 0.0 10.0 0.00 0.00 0.00 90 1009.1
20260505075502 71 142 0.0 5.0 0.00 0.00 0.00 90 1009.1
20260505075002 71 188 0.0 0.0 0.00 0.00 0.00 90 1009.3
20260505074504 71 205 0.0 2.0 0.00 0.00 0.00 90 1009.4
20260505074000 71 191 0.0 2.0 0.00 0.00 0.00 90 1009.4
20260505073501 71 157 0.0 2.0 0.00 0.00 0.00 90 1009.4
20260505073002 71 165 0.0 0.0 0.00 0.00 0.00 90 1009.5
20260505072502 71 166 0.0 0.0 0.00 0.00 0.00 90 1009.6
20260505072002 71 196 0.0 4.0 0.00 0.00 0.00 90 1009.5
20260505071500 71 192 0.0 4.0 0.00 0.00 0.00 89 1009.6
20260505070500 71 191 0.0 10.0 0.00 0.00 0.00 89 1009.7
20260505065502 71 229 0.0 1.0 0.00 0.00 0.00 89 1009.9
20260505065001 71 125 0.0 1.0 0.00 0.00 0.00 89 1010.0
20260505064502 71 173 0.0 1.0 0.00 0.00 0.00 89 1010.0
20260505064000 71 167 0.0 4.0 0.00 0.00 0.00 89 1010.1
20260505063501 71 187 0.0 4.0 0.00 0.00 0.00 89 1010.1
20260505063002 71 200 0.0 0.0 0.00 0.00 0.00 89 1010.1
20260505062001 71 200 0.0 12.0 0.00 0.00 0.00 89 1010.4
20260505061500 71 192 0.0 5.0 0.00 0.00 0.00 89 1010.4
20260505061003 71 161 0.0 5.0 0.00 0.00 0.00 89 1010.4
20260505060502 71 141 0.0 0.0 0.00 0.00 0.00 89 1010.4
20260505060001 71 192 0.0 0.0 0.00 0.00 0.00 88 1010.4
20260505055501 71 170 0.0 0.0 0.00 0.00 0.00 88 1010.4
20260505055002 71 192 0.0 2.0 0.00 0.00 0.00 88 1010.4
20260505054501 71 190 0.0 2.0 0.00 0.00 0.00 88 1010.4
20260505054000 71 163 0.0 2.0 0.00 0.00 0.00 88 1010.4
20260505053001 71 202 0.0 0.0 0.00 0.00 0.00 88 1010.3
20260505052503 71 202 0.0 4.0 0.00 0.00 0.00 88 1010.3
20260505052004 71 156 0.0 4.0 0.00 0.00 0.00 88 1010.1
20260505051504 71 178 0.0 1.0 0.00 0.00 0.00 88 1010.3
20260505051002 71 201 0.0 0.0 0.00 0.00 0.00 88 1010.3
20260505050501 71 140 0.0 0.0 0.00 0.00 0.00 88 1010.2
20260505041002 73 146 0.0 9.0 0.00 0.00 0.00 85 1010.1
20260505040502 73 184 0.0 1.0 0.00 0.00 0.00 85 1010.3
20260505040001 73 171 0.0 4.0 0.00 0.00 0.00 85 1010.4
20260505035503 73 138 0.0 3.0 0.00 0.00 0.00 84 1010.5
20260505035001 73 202 0.0 0.0 0.00 0.00 0.00 84 1010.4
20260505034501 73 155 0.0 1.0 0.00 0.00 0.00 84 1010.5
20260505034001 73 153 0.0 3.0 0.00 0.00 0.00 84 1010.3
20260505033501 73 193 0.0 3.0 0.00 0.00 0.00 84 1010.5
20260505033000 74 207 0.0 0.0 0.00 0.00 0.00 83 1010.4
20260505032501 74 188 0.0 4.0 0.00 0.00 0.00 83 1010.3
20260505032000 74 171 0.0 4.0 0.00 0.00 0.00 83 1010.2
20260505031501 74 158 0.0 4.0 0.00 0.00 0.00 82 1010.1
20260505031001 74 135 0.0 3.0 0.00 0.00 0.00 82 1010.2
20260505030502 74 142 0.0 3.0 0.00 0.00 0.00 82 1010.1
20260505030004 74 147 0.0 0.0 0.00 0.00 0.00 81 1010.1
20260505025501 75 178 0.0 0.0 0.00 0.00 0.00 81 1010.3
20260505025001 75 155 0.0 1.0 0.00 0.00 0.00 81 1010.1
20260505024500 75 136 0.0 0.0 0.00 0.00 0.00 80 1010.1
20260505024000 75 190 0.0 5.0 0.00 0.00 0.00 80 1010.1
20260505023501 75 200 0.0 0.0 0.00 0.00 0.00 80 1010.1
20260505023001 75 184 0.0 1.0 0.00 0.00 0.00 80 1010.1
20260505021501 75 184 0.0 1.0 0.00 0.00 0.00 79 1010.1
20260505021002 76 159 0.0 3.0 0.00 0.00 0.00 78 1010.1
20260505020503 76 159 0.0 3.0 0.00 0.00 0.00 78 1010.0
20260505020004 76 197 0.0 9.0 0.00 0.00 0.00 77 1009.9